Regional Weather Roundup
Issued by NWS

Home | Current Version | Previous Version | Graphics & Text | Print | Product List | Glossary Off
Versions: 1 2 3 4 5 6 7 8 9 10 11 12 13 14 15 16 17 18 19 20 21 22 23 24 25 26 27 28 29 30 31 32 33 34 35 36 37 38 39 40 41 42 43 44 45 46 47 48 49 50

000
ASUS43 KBIS 271002
RWRND

NORTH DAKOTA REGIONAL WEATHER ROUNDUP
NATIONAL WEATHER SERVICE BISMARCK ND
500 AM CDT SAT AUG 27 2016

NOTE: "FAIR" INDICATES FEW OR NO CLOUDS BELOW 12,000 FEET WITH NO
SIGNIFICANT WEATHER AND/OR OBSTRUCTIONS TO VISIBILITY.


NDZ001>003-009>011-017-271100-
NORTHWEST NORTH DAKOTA

CITY           SKY/WX    TMP DP  RH WIND       PRES   REMARKS
WILLISTON      CLOUDY    47  42  83 CALM      29.91F
MINOT          MOCLDY    58  54  86 SW7       29.89F
MINOT AFB      PTCLDY    52  51  96 SE1       29.89F
$$

NDZ018>021-031>035-040>046-271100-
SOUTHWEST NORTH DAKOTA

CITY           SKY/WX    TMP DP  RH WIND       PRES   REMARKS
BISMARCK       CLOUDY    53  52  96 E5        29.94F
DICKINSON      MOCLDY    50  47  89 S10       29.92F
GARRISON         N/A     57  55  93 W5        29.90F
HETTINGER ARPT CLEAR     43  41  93 W5        29.98S
$$

NDZ004>008-012>016-024-026-027-054-271100-
NORTHEAST NORTH DAKOTA

CITY           SKY/WX    TMP DP  RH WIND       PRES   REMARKS
GRAND FORKS    CLOUDY    58  55  90 SE7       29.96F
GRND FRKS AFB  CLOUDY    56  54  92 S5        29.96F
DEVILS LAKE    PTCLDY    57  53  86 S10       29.95S
$$

NDZ022-023-025-028>030-036>039-047>053-271100-
SOUTHEAST NORTH DAKOTA

CITY           SKY/WX    TMP DP  RH WIND       PRES   REMARKS
FARGO          CLOUDY    63  57  81 S9        29.99S
JAMESTOWN      LGT RAIN  57  56  96 W5        29.96S
$$





USA.gov is the U.S. government's official web portal to all federal, state and local government web resources and services.